| time (UTC) | temp F | wind direction | speed MPH | gust MPH | rain 1hr in | rain 24hr in | rain mn in | humidity % | barometer mb |
| 20260905060030 | 57 | 313 | 0.0 | 2.0 | 0.00 | 0.01 | 0.00 | 94 | 1010.2 |
| 20260905054528 | 57 | 313 | 0.0 | 2.0 | 0.00 | 0.01 | 0.00 | 92 | 1010.2 |
| 20260905053032 | 58 | 321 | 0.0 | 0.0 | 0.00 | 0.01 | 0.00 | 92 | 1010.1 |
| 20260905051542 | 58 | 321 | 0.0 | 2.0 | 0.00 | 0.01 | 0.00 | 91 | 1010.2 |
| 20260905050021 | 59 | 321 | 0.0 | 2.0 | 0.00 | 0.01 | 0.00 | 89 | 1010.3 |
| 20260905044534 | 60 | 311 | 0.0 | 2.0 | 0.00 | 0.01 | 0.00 | 88 | 1010.4 |
| 20260905043030 | 61 | 344 | 1.0 | 2.0 | 0.00 | 0.01 | 0.00 | 86 | 1010.4 |
| 20260905041534 | 63 | 313 | 0.0 | 3.0 | 0.00 | 0.01 | 0.00 | 83 | 1010.4 |
| 20260905040035 | 64 | 289 | 1.0 | 3.0 | 0.00 | 0.01 | 0.00 | 80 | 1010.0 |
| 20260905034528 | 65 | 228 | 0.0 | 4.0 | 0.00 | 0.01 | 0.01 | 77 | 1010.1 |
| 20260905033100 | 66 | 320 | 3.0 | 8.0 | 0.00 | 0.01 | 0.01 | 76 | 1009.8 |
| 20260905031533 | 65 | 231 | 1.0 | 7.0 | 0.00 | 0.01 | 0.01 | 77 | 1009.9 |
| 20260905030047 | 65 | 274 | 2.0 | 7.0 | 0.00 | 0.01 | 0.01 | 78 | 1010.0 |
| 20260905024532 | 65 | 288 | 1.0 | 6.0 | 0.00 | 0.01 | 0.01 | 78 | 1010.2 |
| 20260905023026 | 65 | 328 | 1.0 | 4.0 | 0.00 | 0.01 | 0.01 | 80 | 1010.5 |
| 20260905021530 | 65 | 272 | 0.0 | 5.0 | 0.00 | 0.01 | 0.01 | 80 | 1010.7 |
| 20260905020032 | 64 | 325 | 1.0 | 4.0 | 0.00 | 0.01 | 0.01 | 82 | 1010.8 |
| 20260905014532 | 63 | 312 | 0.0 | 1.0 | 0.00 | 0.01 | 0.01 | 87 | 1010.9 |
| 20260905013036 | 63 | 340 | 0.0 | 2.0 | 0.00 | 0.01 | 0.01 | 86 | 1011.1 |
| 20260905011526 | 62 | 341 | 0.0 | 2.0 | 0.00 | 0.01 | 0.01 | 89 | 1011.0 |
| 20260905010033 | 62 | 11 | 0.0 | 2.0 | 0.00 | 0.01 | 0.01 | 88 | 1010.9 |
| 20260905004514 | 61 | 352 | 0.0 | 2.0 | 0.00 | 0.01 | 0.01 | 89 | 1011.0 |
| 20260905003023 | 62 | 319 | 0.0 | 0.0 | 0.00 | 0.01 | 0.01 | 88 | 1011.0 |
| 20260905001525 | 62 | 319 | 0.0 | 0.0 | 0.00 | 0.01 | 0.01 | 87 | 1010.9 |
| 20260905000011 | 62 | 319 | 0.0 | 0.0 | 0.00 | 0.01 | 0.01 | 87 | 1010.7 |
| 20260904234514 | 63 | 319 | 0.0 | 2.0 | 0.00 | 0.01 | 0.01 | 86 | 1010.5 |
| 20260904233018 | 64 | 319 | 0.0 | 2.0 | 0.00 | 0.01 | 0.01 | 84 | 1010.4 |
| 20260904231534 | 65 | 313 | 0.0 | 2.0 | 0.00 | 0.01 | 0.01 | 82 | 1010.2 |
| 20260904230052 | 66 | 339 | 0.0 | 2.0 | 0.00 | 0.01 | 0.01 | 80 | 1010.2 |
| 20260904224511 | 68 | 315 | 0.0 | 2.0 | 0.00 | 0.01 | 0.01 | 75 | 1010.3 |
| 20260904223018 | 71 | 11 | 0.0 | 2.0 | 0.00 | 0.01 | 0.01 | 70 | 1010.1 |
| 20260904221523 | 72 | 53 | 0.0 | 2.0 | 0.00 | 0.01 | 0.01 | 64 | 1009.9 |
| 20260904220029 | 73 | 5 | 2.0 | 6.0 | 0.00 | 0.01 | 0.01 | 61 | 1010.0 |
| 20260904214530 | 73 | 122 | 0.0 | 6.0 | 0.00 | 0.01 | 0.01 | 60 | 1010.0 |
| 20260904213032 | 74 | 94 | 0.0 | 7.0 | 0.00 | 0.01 | 0.01 | 59 | 1010.0 |
| 20260904211535 | 75 | 84 | 2.0 | 5.0 | 0.00 | 0.01 | 0.01 | 59 | 1009.9 |
| 20260904210026 | 75 | 225 | 0.0 | 5.0 | 0.00 | 0.01 | 0.01 | 58 | 1010.0 |
| 20260904204533 | 75 | 286 | 0.0 | 5.0 | 0.00 | 0.01 | 0.01 | 61 | 1009.8 |
| 20260904203031 | 76 | 303 | 0.0 | 8.0 | 0.00 | 0.01 | 0.01 | 56 | 1009.9 |
| 20260904201532 | 76 | 232 | 2.0 | 8.0 | 0.00 | 0.01 | 0.01 | 56 | 1009.8 |
| 20260904200047 | 76 | 336 | 3.0 | 9.0 | 0.00 | 0.01 | 0.01 | 56 | 1010.0 |
| 20260904194533 | 76 | 313 | 1.0 | 8.0 | 0.00 | 0.01 | 0.01 | 58 | 1010.0 |
| 20260904193037 | 78 | 56 | 2.0 | 7.0 | 0.00 | 0.01 | 0.01 | 54 | 1009.9 |
| 20260904191538 | 77 | 11 | 1.0 | 8.0 | 0.00 | 0.01 | 0.01 | 56 | 1010.1 |
| 20260904190030 | 76 | 304 | 1.0 | 7.0 | 0.00 | 0.01 | 0.01 | 56 | 1010.0 |
| 20260904184505 | 79 | 360 | 2.0 | 9.0 | 0.00 | 0.01 | 0.01 | 54 | 1009.9 |
| 20260904183004 | 77 | 88 | 0.0 | 8.0 | 0.00 | 0.01 | 0.01 | 60 | 1010.1 |
| 20260904181506 | 77 | 28 | 1.0 | 9.0 | 0.00 | 0.01 | 0.01 | 60 | 1010.1 |
| 20260904180006 | 77 | 9 | 3.0 | 8.0 | 0.00 | 0.01 | 0.01 | 57 | 1010.3 |
| 20260904174505 | 76 | 9 | 2.0 | 8.0 | 0.00 | 0.01 | 0.01 | 60 | 1010.1 |
| 20260904173010 | 77 | 328 | 4.0 | 15.0 | 0.00 | 0.01 | 0.01 | 62 | 1010.1 |
| 20260904171506 | 75 | 303 | 1.0 | 9.0 | 0.00 | 0.01 | 0.01 | 64 | 1010.4 |
| 20260904170007 | 77 | 107 | 3.0 | 10.0 | 0.00 | 0.01 | 0.01 | 60 | 1010.2 |
| 20260904164507 | 78 | 288 | 2.0 | 8.0 | 0.00 | 0.01 | 0.01 | 59 | 1010.2 |
| 20260904163003 | 75 | 208 | 1.0 | 8.0 | 0.00 | 0.01 | 0.01 | 64 | 1010.5 |
| 20260904161506 | 75 | 264 | 0.0 | 3.0 | 0.00 | 0.01 | 0.01 | 64 | 1010.7 |
| 20260904160007 | 76 | 220 | 1.0 | 7.0 | 0.00 | 0.01 | 0.01 | 62 | 1010.8 |
| 20260904154508 | 77 | 229 | 2.0 | 11.0 | 0.00 | 0.01 | 0.01 | 63 | 1010.8 |
| 20260904153010 | 76 | 352 | 2.0 | 7.0 | 0.00 | 0.01 | 0.01 | 69 | 1011.0 |
| 20260904151509 | 76 | 40 | 3.0 | 9.0 | 0.00 | 0.01 | 0.01 | 62 | 1011.0 |
| 20260904150009 | 75 | 305 | 0.0 | 5.0 | 0.00 | 0.01 | 0.01 | 67 | 1011.0 |
| 20260904144510 | 73 | 352 | 0.0 | 4.0 | 0.00 | 0.01 | 0.01 | 74 | 1010.9 |
| 20260904143019 | 73 | 186 | 1.0 | 2.0 | 0.00 | 0.01 | 0.01 | 78 | 1011.0 |
| 20260904141513 | 72 | 252 | 0.0 | 2.0 | 0.00 | 0.01 | 0.01 | 77 | 1011.1 |
| 20260904140012 | 71 | 117 | 0.0 | 2.0 | 0.00 | 0.01 | 0.01 | 83 | 1011.1 |
| 20260904134512 | 69 | 179 | 1.0 | 4.0 | 0.00 | 0.01 | 0.01 | 90 | 1011.0 |
| 20260904133008 | 66 | 207 | 0.0 | 2.0 | 0.00 | 0.01 | 0.01 | 96 | 1011.2 |
| 20260904131534 | 64 | 105 | 0.0 | 2.0 | 0.00 | 0.01 | 0.01 | 98 | 1011.1 |
| 20260904130012 | 63 | 154 | 0.0 | 2.0 | 0.00 | 0.01 | 0.01 | 98 | 1011.2 |
| 20260904124508 | 61 | 69 | 0.0 | 2.0 | 0.00 | 0.01 | 0.01 | 98 | 1011.2 |
| 20260904123012 | 60 | 304 | 0.0 | 2.0 | 0.00 | 0.01 | 0.01 | 98 | 1011.2 |
| 20260904121513 | 60 | 82 | 0.0 | 0.0 | 0.00 | 0.01 | 0.01 | 98 | 1011.2 |
| 20260904120020 | 59 | 61 | 0.0 | 0.0 | 0.00 | 0.01 | 0.01 | 98 | 1011.1 |
| 20260904114515 | 59 | 60 | 0.0 | 0.0 | 0.00 | 0.01 | 0.01 | 98 | 1011.1 |
| 20260904113033 | 58 | 101 | 0.0 | 0.0 | 0.00 | 0.01 | 0.01 | 98 | 1011.0 |
| 20260904111515 | 58 | 329 | 0.0 | 0.0 | 0.00 | 0.01 | 0.01 | 98 | 1010.9 |
| 20260904110018 | 58 | 329 | 0.0 | 0.0 | 0.00 | 0.01 | 0.01 | 98 | 1010.8 |
| 20260904104517 | 57 | 32 | 0.0 | 0.0 | 0.00 | 0.01 | 0.01 | 98 | 1010.7 |
| 20260904103018 | 57 | 32 | 0.0 | 0.0 | 0.00 | 0.01 | 0.01 | 97 | 1010.7 |
| 20260904101520 | 57 | 32 | 0.0 | 0.0 | 0.00 | 0.01 | 0.01 | 97 | 1010.6 |
| 20260904100019 | 57 | 32 | 0.0 | 0.0 | 0.00 | 0.01 | 0.01 | 97 | 1010.6 |
| 20260904094529 | 58 | 32 | 0.0 | 0.0 | 0.01 | 0.01 | 0.01 | 98 | 1010.4 |
| 20260904093021 | 58 | 32 | 0.0 | 0.0 | 0.01 | 0.01 | 0.01 | 98 | 1010.6 |
| 20260904091520 | 57 | 32 | 0.0 | 0.0 | 0.01 | 0.01 | 0.01 | 98 | 1010.6 |
| 20260904090020 | 57 | 32 | 0.0 | 0.0 | 0.01 | 0.01 | 0.01 | 97 | 1010.5 |
| 20260904084524 | 57 | 32 | 0.0 | 0.0 | 0.00 | 0.00 | 0.00 | 97 | 1010.6 |
| 20260904083036 | 57 | 32 | 0.0 | 0.0 | 0.00 | 0.00 | 0.00 | 97 | 1010.5 |
| 20260904081510 | 57 | 32 | 0.0 | 0.0 | 0.00 | 0.00 | 0.00 | 97 | 1010.4 |
| 20260904080023 | 57 | 32 | 0.0 | 0.0 | 0.00 | 0.00 | 0.00 | 96 | 1010.3 |
| 20260904074523 | 58 | 32 | 0.0 | 0.0 | 0.00 | 0.00 | 0.00 | 97 | 1010.4 |
| 20260904073006 | 59 | 32 | 0.0 | 0.0 | 0.00 | 0.00 | 0.00 | 97 | 1010.4 |
| 20260904071509 | 59 | 32 | 0.0 | 0.0 | 0.00 | 0.00 | 0.00 | 97 | 1010.6 |
| 20260904070014 | 59 | 32 | 0.0 | 0.0 | 0.00 | 0.00 | 0.00 | 97 | 1010.7 |
| 20260904064523 | 59 | 32 | 0.0 | 0.0 | 0.00 | 0.00 | 0.00 | 97 | 1010.8 |
| 20260904063003 | 59 | 32 | 0.0 | 0.0 | 0.00 | 0.00 | 0.00 | 97 | 1010.8 |
| 20260904061508 | 59 | 32 | 0.0 | 0.0 | 0.00 | 0.01 | 0.00 | 97 | 1011.0 |